Probability
4 4 4 2 1 1 2 2 2 1 0 0 0 0 0 0 1 2 3 6 7 7 4 2 2 4 5 5 4 4 5 7 6 4 1 1 2 3 4 5 4 4 3
6 5 4 4 3 2 3 3 2 0 0 0 0 0 0 0 0 2 3 4 6 7 8 6 5 4 5 5 4 3 4 6 6 4 2 2 2 2 3 4 5 4 3
6 5 5 6 5 4 4 4 2 1 0 0 0 0 0 0 2 3 3 3 4 6 10 10 7 5 5 4 2 2 4 7 8 7 6 5 5 5 6 7 6 5 4
5 6 7 7 7 5 4 3 2 1 1 0 0 0 0 1 4 4 4 4 4 5 8 9 8 7 5 4 4 4 5 7 10 11 10 9 9 10 10 10 8 6 4
6 8 9 8 7 6 5 3 2 2 2 1 0 0 0 2 4 5 6 6 5 5 6 7 8 8 6 6 6 7 7 8 10 12 12 11 11 11 10 10 8 7 6
7 8 8 7 6 6 6 5 4 5 4 2 1 1 1 3 5 7 8 8 6 6 6 6 6 6 6 7 7 7 8 10 10 10 11 11 10 9 9 8 9 9 8
8 7 7 7 7 7 8 8 8 7 4 3 3 3 3 4 6 9 10 8 5 4 4 4 4 5 6 7 6 6 7 9 9 9 10 10 10 8 7 8 9 9 9
9 8 8 8 9 9 9 9 8 7 5 4 3 4 4 5 7 9 10 8 5 3 2 3 4 5 6 5 6 6 6 6 7 8 9 10 9 8 7 8 8 8 9
8 8 9 10 9 9 9 7 6 6 6 5 5 5 5 5 7 9 10 8 6 4 2 1 2 3 3 4 5 7 7 6 5 7 8 8 8 7 7 8 8 8 7
9 9 10 11 10 10 10 9 8 8 8 8 8 9 7 7 7 9 10 9 7 5 3 2 2 2 2 4 7 7 7 6 5 5 6 6 7 7 7 8 9 8 8
9 10 11 12 14 15 15 15 14 13 12 13 14 14 11 9 9 9 10 11 9 6 4 3 3 3 2 5 8 7 5 4 3 2 2 2 4 5 6 7 8 8 9
8 9 11 12 15 17 18 18 17 17 18 20 21 20 17 13 12 12 11 11 10 7 5 5 4 3 3 5 7 6 4 3 1 0 0 0 1 2 2 4 6 7 7
5 7 9 11 13 15 17 18 20 21 23 25 26 26 24 20 17 16 15 13 11 8 7 6 4 3 2 3 5 4 3 1 0 0 0 0 0 0 0 2 3 4 5
4 6 9 11 13 15 17 20 23 25 27 28 29 29 28 25 24 23 22 19 16 13 10 9 7 4 2 2 3 3 2 1 0 0 0 0 0 0 0 0 1 2 2
7 9 12 14 15 17 20 22 24 26 28 28 28 28 28 27 28 28 27 24 22 20 16 14 11 6 3 4 3 2 3 2 1 0 0 0 0 0 0 0 0 0 1
14 15 17 18 17 18 21 23 24 25 26 26 26 26 26 26 27 26 25 24 23 23 20 17 13 8 6 6 4 3 4 4 2 0 0 0 0 0 0 0 0 0 0
23 23 23 21 19 19 22 24 24 23 24 24 24 25 25 25 25 24 24 23 23 23 21 17 13 9 7 7 6 6 5 4 3 1 0 0 0 0 0 0 0 0 0
28 28 27 26 24 24 25 26 24 22 23 23 23 24 25 25 24 24 24 23 22 21 19 16 12 9 7 7 7 7 6 5 4 2 0 0 0 0 0 0 0 0 0
27 29 30 30 30 29 29 28 26 23 23 24 23 23 23 23 22 22 22 21 20 19 18 15 10 8 6 6 7 6 5 6 5 3 1 0 0 0 0 0 0 0 0
25 27 30 30 30 30 30 29 27 25 24 24 23 22 22 21 20 20 20 18 17 16 16 12 8 5 4 5 7 6 6 7 7 4 3 2 1 1 1 0 0 0 0
21 23 26 27 28 27 26 25 25 24 24 23 22 21 21 20 19 17 14 13 13 13 12 10 7 5 5 7 8 7 7 8 9 7 6 5 5 4 3 1 1 0 0
20 21 21 23 24 24 20 18 19 21 22 21 20 18 18 17 15 11 7 6 8 8 8 8 7 8 10 11 11 8 7 9 9 9 9 8 7 8 6 3 1 0 0
22 21 20 20 22 20 15 11 12 15 17 18 18 17 16 14 11 9 5 4 4 5 6 7 8 10 13 15 13 11 10 10 10 10 9 8 8 9 8 4 1 0 0
24 23 21 21 21 18 12 8 8 11 13 13 14 15 15 13 11 9 8 6 5 5 6 7 8 10 12 13 12 12 12 11 10 9 8 7 7 8 7 5 2 0 0
25 23 22 22 20 17 11 6 6 10 12 11 11 12 13 12 9 8 9 9 8 8 7 7 7 8 8 7 7 9 11 11 10 9 8 7 7 7 8 7 3 0 0
25 24 24 22 20 17 11 5 6 10 12 12 12 12 11 9 7 6 8 10 11 10 7 6 6 5 4 3 3 6 9 10 10 9 9 9 8 7 8 9 5 1 0
Wind_Speed
0 1 1 1 1 1 1 1 1 1 2 3 3 3 4 3 3 3 2 5 5 5 6 7 7 7 7 7 7 8 10 10 9 10 10 10 10 10 10 10 11 10 11
0 1 1 1 1 1 1 1 1 1 2 2 2 2 3 3 3 3 3 4 7 6 6 7 7 6 7 7 7 8 9 9 8 9 10 10 11 11 11 11 11 11 11
1 2 1 1 1 1 1 1 1 1 2 2 2 3 3 3 3 3 3 3 3 7 7 6 6 7 7 7 8 8 8 8 8 9 10 10 11 11 11 11 11 11 11
1 2 1 1 1 1 1 1 1 1 1 2 2 2 2 3 4 4 4 3 3 2 5 6 6 6 6 6 7 8 7 8 9 9 9 10 11 11 11 11 11 11 11
1 2 1 1 2 1 1 2 1 2 1 2 3 2 3 3 3 4 3 3 3 2 2 4 6 5 5 5 6 6 7 7 8 9 9 10 10 10 10 10 10 10 10
1 2 1 1 2 1 1 1 1 1 2 2 3 2 3 3 3 3 3 3 2 3 3 2 3 4 5 4 4 5 6 7 7 8 8 9 10 10 9 10 10 10 10
1 1 2 0 2 1 2 2 2 1 1 1 2 2 2 3 2 2 2 2 2 2 2 2 2 2 2 4 3 4 5 6 7 7 8 8 9 10 10 10 9 9 9
2 2 1 2 1 1 1 2 2 3 2 1 3 3 2 2 2 2 2 2 2 2 2 2 1 1 3 1 2 2 3 4 5 6 7 7 7 8 9 9 9 9 9
2 2 1 2 2 2 1 2 2 2 3 2 2 3 3 2 1 1 1 1 2 2 2 1 2 1 2 2 1 2 1 2 4 5 6 6 6 6 7 8 8 9 9
2 2 1 2 3 2 1 2 1 2 3 3 2 2 3 4 4 2 2 2 2 3 2 2 2 2 2 2 1 1 1 1 2 4 5 5 5 6 6 7 8 9 9
1 1 1 1 2 2 1 2 2 3 3 4 3 3 2 3 4 5 3 2 2 2 2 3 2 2 2 2 2 1 1 0 2 3 4 5 5 5 6 7 7 8 8
1 1 1 1 2 2 1 2 2 3 3 4 4 4 3 3 3 4 5 4 3 2 2 2 3 2 2 2 1 2 1 1 2 3 4 4 4 4 5 6 6 7 7
1 1 1 1 2 2 2 2 2 3 3 4 4 4 4 4 4 4 4 4 4 3 2 2 2 2 2 2 1 1 2 2 2 3 3 4 4 4 4 5 5 6 7
2 1 1 2 2 2 2 2 3 3 3 4 4 4 4 3 3 4 4 4 4 4 3 3 1 1 2 2 2 3 2 2 2 3 3 3 3 4 4 4 4 4 5
2 2 2 2 3 2 3 3 3 3 3 4 3 3 4 3 3 3 3 4 5 5 4 2 2 1 2 2 1 3 2 1 2 2 3 2 3 3 3 2 2 3 3
2 2 3 3 3 3 3 4 3 3 3 3 3 3 4 3 3 3 3 4 4 5 5 3 2 2 2 3 1 3 3 2 2 2 0 1 1 2 1 1 2 2 2
2 3 3 3 3 3 3 3 4 4 4 4 4 3 4 4 4 4 3 3 3 4 5 4 2 2 2 3 2 3 2 3 2 4 2 1 0 1 1 1 1 2 2
3 3 3 3 4 4 4 4 5 4 4 4 4 4 4 3 4 4 3 4 3 3 4 5 3 2 2 2 2 3 2 2 2 6 5 3 1 1 0 0 1 1 2
3 3 4 4 4 4 4 4 4 5 5 4 4 4 4 4 4 3 4 4 3 3 3 4 3 2 2 2 2 3 2 2 4 4 7 6 4 3 2 1 1 1 1
3 3 4 4 5 5 5 5 5 5 5 4 4 4 4 4 4 4 4 4 3 3 3 4 3 3 2 1 2 2 2 1 3 2 1 2 5 7 6 3 2 0 1
4 3 4 4 5 5 4 4 5 5 5 4 4 4 4 3 4 4 4 3 3 4 3 3 3 3 2 1 2 2 2 2 2 1 3 2 2 2 5 6 3 0 1
4 4 4 4 5 3 3 4 6 4 4 4 4 4 4 4 3 4 4 4 4 4 4 4 3 3 3 3 2 3 2 3 2 0 2 2 2 2 2 0 3 3 2
4 4 4 4 4 2 2 3 5 6 4 4 4 4 5 2 4 4 4 6 4 4 4 5 4 4 4 3 3 3 2 3 3 2 3 2 2 2 2 3 7 4 3
4 4 4 4 4 2 2 3 5 6 4 4 4 4 5 4 3 4 4 4 4 3 4 4 4 4 3 3 4 5 4 4 4 2 2 3 2 2 2 1 7 5 4
3 3 3 3 3 3 2 3 6 4 3 4 4 3 4 3 1 4 4 4 4 3 2 1 1 1 2 3 4 4 3 4 3 1 1 3 2 2 2 1 4 7 5
3 3 3 4 4 4 2 3 5 4 3 3 3 2 1 2 1 3 4 4 4 3 2 3 3 4 4 4 5 4 4 4 3 1 1 2 2 2 2 1 1 2 3
Wind_Direction
236 298 300 276 280 291 234 251 266 251 248 240 257 255 256 246 253 253 182 168 203 226 235 239 236 234 236 234 241 238 231 228 226 225 224 225 226 227 228 229 229 231 231
239 269 247 261 270 272 321 296 277 259 268 271 261 256 263 258 249 255 256 187 195 215 228 233 232 230 231 232 240 242 233 227 227 227 227 229 230 230 230 231 233 233 234
216 236 246 252 312 287 252 255 271 254 247 241 247 252 247 252 253 251 255 255 212 195 203 214 227 230 231 235 239 242 236 229 226 227 230 231 232 232 231 233 234 234 234
255 255 271 303 301 272 270 265 269 286 290 275 261 256 250 234 236 236 235 234 250 232 189 196 219 229 235 240 243 246 244 236 230 229 232 235 237 236 234 234 235 234 235
272 268 303 338 278 280 292 296 356 300 299 290 268 244 252 243 240 237 234 230 226 245 240 177 198 213 233 245 249 251 247 242 235 233 236 239 241 241 239 237 236 237 236
273 290 255 311 290 294 301 327 317 306 298 290 289 287 260 253 240 241 243 232 221 231 241 241 220 198 207 228 245 254 256 247 242 240 242 244 244 242 240 239 237 235 234
269 282 301 288 291 311 319 305 293 262 283 308 280 266 229 219 220 225 238 249 227 230 237 244 264 286 202 187 215 242 254 258 255 251 248 249 250 243 240 241 238 236 236
268 246 282 279 277 284 279 301 299 301 294 286 292 289 268 199 197 212 217 228 240 238 235 224 227 274 294 279 131 202 249 266 263 264 258 255 256 247 240 239 238 239 239
257 290 288 285 287 277 278 279 272 276 291 284 295 300 299 313 322 200 212 233 243 254 252 239 222 236 264 281 266 173 226 278 274 276 275 270 264 254 245 240 240 242 241
260 259 278 290 285 283 294 273 277 286 277 280 264 271 293 318 292 276 219 217 232 240 255 266 254 236 246 255 266 22 162 257 282 289 287 282 272 261 250 247 244 241 239
253 269 276 284 280 281 298 306 310 292 287 294 294 285 272 256 258 273 281 274 252 244 247 262 272 263 248 260 266 24 84 281 278 284 284 283 280 273 258 250 248 246 243
237 255 270 284 275 283 277 268 277 268 283 294 294 291 283 279 273 269 271 271 275 274 275 282 275 271 266 262 291 59 67 283 271 273 278 284 289 285 281 264 255 256 256
273 281 286 285 286 276 275 278 265 282 281 279 279 284 284 283 287 281 278 282 286 280 260 252 263 282 283 293 304 178 195 239 266 272 275 284 293 293 289 286 275 267 263
302 317 272 261 269 278 275 270 273 269 273 276 277 283 278 274 280 279 282 283 277 266 245 266 252 271 293 296 356 274 249 185 244 272 278 280 290 294 290 288 293 291 277
273 282 277 264 265 266 270 270 272 283 281 274 270 260 266 272 272 275 271 273 278 281 277 256 257 261 280 295 318 280 285 145 223 254 269 278 292 298 296 295 300 308 309
281 270 263 263 261 259 257 265 265 268 270 268 272 284 281 280 281 269 264 263 266 276 284 290 279 294 307 294 245 278 276 166 184 184 224 303 314 314 328 329 321 315 311
252 259 266 268 266 267 266 264 269 267 264 268 272 267 270 284 284 277 268 264 264 266 272 283 294 315 297 303 302 274 255 243 164 152 149 124 72 39 26 349 337 335 342
243 256 263 264 265 263 263 263 268 268 263 264 269 272 273 269 272 279 284 277 272 265 268 276 276 274 268 284 286 280 283 261 246 142 158 167 158 144 114 38 26 7 357
254 257 262 263 264 265 263 262 264 265 264 266 269 271 276 281 281 283 278 275 271 263 265 264 265 276 273 285 271 265 264 292 281 163 175 180 179 191 188 149 88 28 330
255 258 261 264 265 266 265 263 258 259 262 261 265 272 278 280 283 282 273 271 276 275 263 263 263 256 252 262 269 272 267 257 287 301 307 223 183 192 190 174 152 64 284
258 257 264 267 268 265 275 281 272 265 266 266 270 272 275 288 308 302 301 299 288 279 276 271 267 264 272 286 284 281 285 279 241 290 305 282 213 221 195 181 165 167 254
268 271 271 274 277 289 351 322 297 282 272 269 275 276 264 243 249 247 271 289 301 294 304 297 284 281 281 281 285 279 285 284 274 19 300 293 304 297 286 167 112 136 150
266 270 273 276 281 297 329 302 289 278 268 271 270 268 271 263 252 256 226 217 228 242 263 280 281 283 284 287 279 264 264 280 294 317 287 283 297 307 304 87 116 129 140
269 269 270 272 274 282 279 272 276 258 260 260 262 261 265 275 290 288 271 255 247 232 244 254 268 281 297 302 271 264 262 250 243 226 263 279 293 300 303 125 133 141 142
270 267 266 268 269 275 263 266 275 255 249 254 264 272 277 266 320 292 265 256 258 243 182 162 323 274 281 277 282 271 259 256 260 229 215 277 293 296 285 260 149 159 158
260 265 267 269 270 273 252 251 277 265 264 262 246 231 181 279 290 276 260 254 258 271 271 211 206 217 228 212 218 243 262 266 276 261 136 278 290 290 279 283 301 185 182